{"data":{"norad_id":60021,"epoch":"2026-05-25T04:44:55.656960Z","epoch_age_seconds":61327,"freshness":"FRESH","line1":"1 60021U 24111F   26145.19786640  .00003556  00000+0  11638-3 0  9997","line2":"2 60021  53.1611  79.0891 0001211 101.4920 258.6219 15.34381699110772","mean_motion":15.34381699,"eccentricity":0.0001211,"inclination_deg":53.1611,"raan_deg":79.0891,"arg_perigee_deg":101.492,"mean_anomaly_deg":258.6219,"bstar":0.00011638,"rev_number":11077,"period_min":93.848877429813,"perigee_km":461.92920283619,"apogee_km":463.58606751683,"semimajor_km":6840.8946351765,"source":"CELESTRAK","updated_at":"2026-05-25T13:38:19.131890Z"}}